www.pogodaiklimat.ru

Погода и климат >> Архив погоды >> Аргентина >> Ла-Риоха


ПОГОДА в Ла-Риохе

  • Прогноз погоды в Ла-Риохе
  • Монитор погоды в Ла-Риохе

АРХИВ ПОГОДЫ в Ла-Риохе

Время (UTC), дата Ветер
(напр.,м/с)
 
Видим.   Явления Облачность Т
(С)
Тd
(С)
f
(%)
Тe
(С)
Тes
(С)
Комфортность P
(гПа)
Po
(гПа)
Тmin
(С)
Tmax
(С)
R
(мм)
R24
(мм)
S
(см)
15 18.08 Ю 2 20 км 5/0
[Ac As Cc]
+20.2 +2.9 32 +21 +28 комфорт 1020.1 970.1
18 18.08 ЮЗ 2 20 км 6/0
[Ac As Ci sp]
+20.6 +3.0 31 +22 +29 комфорт 1018.2 968.2
21 18.08 ЮЗ 4 20 км 5/0
[Ac As]
+21.0 -0.4 24 +21 +22 комфорт 1017.8 967.8
00 19.08 штиль 0 20 км 9/9 1500 м
[Sc]
+17.8 +6.5 47 +18 +18 1021.2 971.0 +14.3 +21.4
03 19.08 штиль 0 20 км 8/8 1500 м
[Sc]
+13.4 +6.1 61 +13 +13 1023.3 973.2
06 19.08 ЮЗ 2 20 км ясно +10.0 +4.9 71 +9 +9 1023.6 973.2
09 19.08 З 2 20 км ясно +7.4 +3.8 78 +5 +5 1022.0 971.4
12 19.08 Ю 5 20 км 6/6 1500 м
[Sc]
+10.0 +5.8 75 +7 +7 1023.0 972.4 +6.3 +18.0
15 19.08 Ю 4 20 км пыльный позёмок 9/6 1500 м
[Sc As trans]
+12.5 +4.7 59 +11 +13 1022.9 972.2
18 19.08 Ю 3 15 км пыльный позёмок 9/9 1500 м
[Sc]
+15.6 +5.7 52 +15 +16 1020.0 969.4
21 19.08 ЮЗ 3 15 км пыльный позёмок 10/10 1500 м
[Sc]
+15.3 +5.8 53 +15 +15 1019.1 968.2
00 20.08 Ю 3 15 км пыльный позёмок 10/10 1500 м
[Sc]
+14.8 +6.4 57 +14 +14 1021.8 971.0 +9.9 +16.6
03 20.08 Ю 4 12 км пыльный позёмок 10/10 1500 м
[Sc]
+13.0 +6.1 63 +11 +11 1023.9 973.0
06 20.08 Ю 4 15 км пыльный позёмок 10/10 1500 м
[Sc]
+12.0 +5.8 66 +10 +10 1023.5 972.9
09 20.08 Ю 3 12 км пыльный позёмок 9/9 1500 м
[Sc]
+11.0 +4.1 62 +10 +10 1023.1 972.4
12 20.08 Ю 2 12 км пыльный позёмок 9/9 1500 м
[Sc]
+10.0 +3.9 66 +9 +9 1025.4 974.4 +9.7 +15.2
15 20.08 Ю 2 12 км мгла 10/10 1500 м
[Sc]
+11.8 +2.7 54 +11 +11 1025.8 974.8
18 20.08 Ю 2 15 км мгла 3/3 1500 м
[Sc As trans]
+17.0 +5.4 46 +18 +26 1022.2 971.8
21 20.08 В 2 15 км мгла ясно +18.6 +6.1 44 +20 +21 1020.7 970.4
00 21.08 З 3 20 км ясно +10.7 +4.5 65 +9 +9 1022.9 971.7 +9.9 +19.5
03 21.08 ЮЗ 2 20 км ясно +8.2 +3.7 73 +6 +6 1023.4 972.1
06 21.08 ЮЗ 3 20 км ясно +9.7 +2.2 60 +8 +8 1021.8 971.2
09 21.08 ЮЗ 4 20 км ясно +7.6 +0.9 62 +5 +5 1020.9 970.2
12 21.08 Ю 3 20 км ясно +7.4 +0.3 61 +5 +6 1022.7 971.3 +4.7 +11.8
15 21.08 Ю 4 20 км ясно +14.3 +4.0 50 +13 +20 1021.4 970.4
18 21.08 штиль 0 12 км мгла ясно +18.8 +6.9 46 +19 +34 опасность
простуды
1017.1 966.9
21 21.08 штиль 0 12 км мгла ясно +20.1 +6.4 41 +21 +22 комфорт 1014.7 964.5
00 22.08 З 3 15 км ясно +12.6 +4.1 56 +12 +12 1017.0 966.1
03 22.08 ЮЗ 5 20 км ясно +14.2 +2.4 45 +13 +13 1020.5 969.4
06 22.08 ЮЗ 3 20 км ясно +12.0 +3.0 54 +11 +11 1022.2 971.8
09 22.08 З 2 20 км ясно +7.8 +5.7 87 +6 +6 1024.5 973.9
12 22.08 З 2 20 км ясно +10.4 +3.8 64 +10 +11 1028.9 977.6 +6.4 +15.0
15 22.08 штиль 0 12 км мгла ясно +20.0 +7.8 45 +21 +36 комфорт 1028.6 978.2
18 22.08 ЮВ 3 12 км мгла ясно +24.2 +7.2 34 +24 +34 комфорт 1024.2 974.2
21 22.08 С 4 12 км мгла ясно +25.2 +4.3 26 +25 +25 комфорт 1022.1 972.0
00 23.08 З 3 20 км ясно +15.3 +5.8 53 +15 +15 1024.5 973.7 +6.3 +26.4
03 23.08 З 2 20 км ясно +12.2 +4.6 60 +11 +11 1023.6 973.4
06 23.08 З 3 20 км ясно +11.2 +4.3 62 +10 +10 1020.8 971.0
09 23.08 ЮЗ 2 20 км ясно +10.2 +4.1 66 +9 +9 1019.6 969.8
12 23.08 З 1 18 км дым 1/0
[Ac trans]
+9.2 +3.4 67 +9 +10 1020.4 969.7 +7.1 +15.3
15 23.08 ЮВ 2 18 км дым 4/0
[Ci]
+19.4 +7.2 45 +21 +32 комфорт 1020.1 970.0
18 23.08 З 2 18 км дым 1/0
[Ac trans]
+24.0 +20 +31 1015.7 966.1
21 23.08 СЗ 2 18 км дым ясно +25.8 +6.5 29 +25 +27 комфорт 1011.8 962.5
00 24.08 штиль 0 10 км дым ясно +16.8 +6.6 51 +17 +17 1012.9 962.6 +9.1 +25.9
03 24.08 штиль 0 10 км дым ясно +14.8 +8.0 64 +15 +15 1013.8 964.2
09 24.08 ЮЗ 4 15 км дым ясно +13.2 +3.8 53 +12 +12 1013.2 964.0
12 24.08 ЮЗ 2 20 км 4/0
[Cc]
+10.4 +4.4 66 +9 +10 1015.3 965.0 +8.9 +16.8
15 24.08 ЮВ 2 20 км 5/0
[Cs]
+18.6 +6.6 45 +19 +30 1014.8 965.0
18 24.08 Ю 2 10 км дым 6/0
[Cs]
+23.0 +7.4 37 +24 +34 комфорт 1010.8 961.7
21 24.08 ЮВ 2 10 км дым 8/0
[Cs]
+23.8 +7.6 35 +24 +25 комфорт 1009.9 960.6
00 25.08 З 3 10 км дым 8/0
[Cs]
+17.0 +7.8 55 +17 +17 1013.8 963.6 +10.3 +24.5
03 25.08 Ю 2 10 км дым 6/0
[Cs]
+15.6 +7.4 58 +16 +16 1013.6 964.0
06 25.08 Ю 4 10 км дым 6/0
[Cs]
+16.6 +5.3 47 +16 +16 1011.4 962.4
09 25.08 Ю 4 10 км дым 9/0
[Cs]
+15.4 +6.2 54 +15 +15 1010.9 961.8
12 25.08 З 3 10 км дым 5/0
[Ac As Cs]
+11.6 +8.0 79 +10 +11 1012.2 962.2 +10.3 +17.0

 

Местоположение метеостанции Ла-Риоха (Аргентина): широта -29.38 долгота -66.81 высота над уровнем моря 429 м.

В архиве по умолчанию представлена погода в Ла-Риохе за последнюю неделю. Архивные данные за месяц целиком и за предыдущие месяцы, начиная с января 2011 года, Вы можете получить, выбрав интересующий диапазон дат из раскрывающегося списка и нажав кнопку "Ввод!".


*Определитесь, кто Вы:
робот инопланетянин человек

Внимание! Время в таблицах - всемирное. Для получения местного времени необходимо прибавить поправку, которая равна -3 ч.

Смотрите также архив погоды в соседних городах и на ближайших метеорологических станциях:

Погода в Чамикале (Аргентина) (120 км)
Погода в Сан-Фернандо-дель-Валье-де-Катамарке (Аргентина) (134 км)
Погода в Сан-Хуане (Аргентина) (272 км)
Погода в Сантьяго-дель-Эстеро (Аргентина) (304 км)
Погода в Вилла де Мария дель Рио Секо (Аргентина) (308 км)
Погода в Вилла Долорес (Аргентина) (328 км)
Погода в Сан-Мигель-де-Тукумане (Аргентина) (328 км)
Погода в Кордове (Аргентина) (329 км)
Погода в Пиларе (Аргентина) (378 км)
Погода в Викунье (Чили) (383 км)

Пояснения к столбцам:

Ветер - указаны скорость ветра в м/с - средняя за 10 мин, порывы в срок и между сроками (в фигурных скобках) и направление, откуда дует ветер: С - северный, СВ - северо-восточный, В - восточный, ЮВ - юго-восточный, Ю - южный, ЮЗ - юго-западный, З - западный, СЗ - северо-западный.
Видимость - горизонтальная дальность видимости в метрах или километрах. При видимости от 1 до 10 км при отсутствии осадков обычно наблюдается дымка, при ухудшении видимости до 1 км и менее - туман. В сухую погоду видимость может ухудшаться дымом, пылью или мглою.
Явления - указаны атмосферные явления, наблюдавшиеся в срок или в последний час перед сроком; фигурными скобками обозначены явления, наблюдавшиеся между сроками (за 1-3 часа до срока); квадратными скобками обозначены град или гололедные отложения с указанием их диаметра в мм.
Облачность - указаны через наклонную черту общая и нижняя облачность в баллах и высота нижней границы облаков в метрах; квадратными скобками обозначены формы облаков: Ci - перистые, Cs - перисто-слоистые, Cc - перисто-кучевые, Ac - высококучевые, As - высокослоистые, Sc - слоисто-кучевые, Ns - слоисто-дождевые, Cu - кучевые, Cb - кучево-дождевые. Подробнее классификацию облаков см. в Атласе облаков (PDF).
T - Температура воздуха - температура, измеренная на высоте 2 м над землей.
Td - Температура точки росы - температура, при понижении до которой содержащийся в воздухе водяной пар достигнет насыщения.
f - Относительная влажность воздуха - влажноcть воздуха, измеренная на высоте 2 м над землей.
Te - Эффективная температура - температура, которую ощущает одетый по сезону человек в тени. Характеристика душности погоды. При расчете учитывается влияние влажности воздуха и скорости ветра на теплоощущения человека.
Tes - Эффективная температура на солнце - температура, которую ощущает человек, с поправкой на солнечный нагрев. Характеристика знойности погоды. Зависит от высоты солнца над горизонтом, облачности и скорости ветра. Ночью, в пасмурную погоду, а также при ветре 12 м/с и более поправка равна нулю.
P - Атмосферное давление - приведенное к уровню моря атмосферное давление.
Po - Атмосферное давление - измеренное на уровне метеостанции атмосферное давление.
Tmin - Минимальная температура - минимум температуры воздуха на высоте 2 м над землей.
Tmax - Максимальная температура - максимум температуры воздуха на высоте 2 м над землей.
R - Количество осадков - Количество выпавших осадков за период времени, мм. При наведении курсора мыши на число - период времени, за который выпало указанное количество осадков.
R24 - Количество осадков - Количество выпавших осадков за 24 часа, мм.
S - Снежный покров - Высота снежного покрова, см. При наведении курсора мыши на число - состояние снежного покрова и степень покрытия местности в баллах.